This demonstration page uses our WeatherBlox Daily Observations layout. Learn more.

39.92423, -83.80882

Hourly Observations for August 11, 2017

Temp ( °F °C ) Dew Point ( °F °C ) Humidity (%) Winds ( mph kmh ) Pressure ( in mb ) Visibility ( mi km ) Precip ( " mm )
12:56 am 00:56 Mostly Cloudy 64 17.8 62 16.7 93 93 Calm 30.07 1018 10 16.0934 0 0
1:56 am 01:56 Clear 61 16.1 59 15 93 93 Calm 30.06 1018 10 16.0934 0 0
2:56 am 02:56 Clear 62 16.7 60 15.6 93 93 SW 6 9 30.07 1018 10 16.0934 0 0
3:56 am 03:56 Clear 61 16.1 58 14.4 90 90 Calm 30.06 1018 10 16.0934 0 0
4:56 am 04:56 Clear 60 15.6 59 15 96 96 S 3 6 30.05 1018 10 16.0934 0 0
5:56 am 05:56 Clear 61 16.1 59 15 93 93 S 3 6 30.04 1017 10 16.0934 0 0
6:56 am 06:56 Mostly Cloudy 64 17.8 59 15 84 84 undefined N/A 30.05 1018 10 16.0934 0 0
7:56 am 07:56 Partly Cloudy 65 18.3 60 15.6 84 84 undefined N/A 30.05 1018 10 16.0934 0 0
8:56 am 08:56 Cloudy 67 19.4 62 16.7 84 84 WSW 6 9 30.06 1018 10 16.0934 0 0
9:56 am 09:56 Sunny 72 22.2 63 17.2 73 73 SSW 5 7 30.04 1017 10 16.0934 0 0
10:56 am 10:56 Sunny 73 22.8 64 17.8 74 74 SSW 5 7 30.05 1018 10 16.0934 0 0
11:56 am 11:56 Sunny 76 24.4 66 18.9 72 72 VRB 3 6 30.05 1018 10 16.0934 0 0
12:56 pm 12:56 Sunny 79 26.1 64 17.8 60 60 W 6 9 30.04 1017 10 16.0934 0 0
1:56 pm 13:56 Sunny 78 25.6 65 18.3 64 64 WSW 5 7 30.03 1017 10 16.0934 0 0
2:56 pm 14:56 Mostly Cloudy 79 26.1 65 18.3 62 62 WSW 3 6 30.01 1016 10 16.0934 0 0.0254
3:56 pm 15:56 Mostly Cloudy 79 26.1 67 19.4 67 67 SSW 3 6 30 1016 10 16.0934 0 0
4:56 pm 16:56 Mostly Cloudy 76 24.4 67 19.4 74 74 SW 10 17 29.99 1016 10 16.0934 0 0.0254
5:56 pm 17:56 Mostly Cloudy 78 25.6 67 19.4 69 69 WSW 9 15 29.97 1015 10 16.0934 0 0
6:56 pm 18:56 Mostly Sunny 79 26.1 67 19.4 67 67 SW 8 13 29.95 1014 10 16.0934 0 0
8:37 pm 20:37 Mostly Cloudy with Nearby Thunderstorms 73 23 66 19 78 78 Calm 29.94 1014 10 16.0934 0 0
8:52 pm 20:52 Mostly Cloudy 72 22 66 19 83 83 NNE 12 19 29.94 1014 10 16.0934 0 0
8:56 pm 20:56 Mostly Cloudy 72 22.2 66 18.9 82 82 NE 13 20 29.97 1015 10 16.0934 0 0
9:56 pm 21:56 Cloudy 68 20 64 17.8 87 87 E 7 11 29.97 1015 10 16.0934 0 0
10:29 pm 22:29 Cloudy 68 20 63 17 83 83 ESE 3 6 29.97 1015 10 16.0934 0 0
10:38 pm 22:38 Cloudy with Nearby Thunderstorms 68 20 63 17 83 83 NNE 8 13 29.97 1015 10 16.0934 0 0
10:48 pm 22:48 Cloudy with Nearby Thunderstorms 70 21 63 17 78 78 ENE 8 13 29.97 1015 7 11.26538 0 0
10:56 pm 22:56 Cloudy with Nearby Thunderstorms 68 20 64 17.8 87 87 E 7 11 29.98 1015 7 11.26538 0.01 0.254
11:18 pm 23:18 Cloudy 66 19 64 18 94 94 ENE 5 7 29.97 1015 10 16.0934 0 0.0254
11:56 pm 23:56 Cloudy 66 18.9 65 18.3 96 96 NE 5 7 29.97 1015 10 16.0934 0.02 0.508

Powered by AerisWeather